Year,Month,Day,Hour,Minute,Value (Times are PST for temperature in C)
2013,05,04,00,00,16.40
2013,05,04,00,01,16.40
2013,05,04,00,02,16.40
2013,05,04,00,03,16.50
2013,05,04,00,04,16.60
2013,05,04,00,05,16.60
2013,05,04,00,06,16.60
2013,05,04,00,07,16.60
2013,05,04,00,08,16.70
2013,05,04,00,09,16.70
2013,05,04,00,10,16.70
2013,05,04,00,11,16.70
2013,05,04,00,12,16.70
2013,05,04,00,13,16.70
2013,05,04,00,14,16.70
2013,05,04,00,15,16.70
2013,05,04,00,16,16.70
2013,05,04,00,17,16.70
2013,05,04,00,18,16.70
2013,05,04,00,19,16.70
2013,05,04,00,20,16.60
2013,05,04,00,21,16.60
2013,05,04,00,22,16.60
2013,05,04,00,23,16.60
2013,05,04,00,24,16.60
2013,05,04,00,25,16.60
2013,05,04,00,26,16.60
2013,05,04,00,27,16.60
2013,05,04,00,28,16.60
2013,05,04,00,29,16.50
2013,05,04,00,30,16.50
2013,05,04,00,31,16.50
2013,05,04,00,32,16.50
2013,05,04,00,33,16.50
2013,05,04,00,34,16.40
2013,05,04,00,35,16.40
2013,05,04,00,36,16.40
2013,05,04,00,37,16.30
2013,05,04,00,38,16.30
2013,05,04,00,39,16.30
2013,05,04,00,40,16.20
2013,05,04,00,41,16.20
2013,05,04,00,42,16.20
2013,05,04,00,43,16.20
2013,05,04,00,44,16.10
2013,05,04,00,45,16.10
2013,05,04,00,46,16.10
2013,05,04,00,47,16.10
2013,05,04,00,48,16.00
2013,05,04,00,49,16.00
2013,05,04,00,50,16.00
2013,05,04,00,51,16.00
2013,05,04,00,52,15.90
2013,05,04,00,53,15.90
2013,05,04,00,54,15.90
2013,05,04,00,55,15.90
2013,05,04,00,56,15.90
2013,05,04,00,57,15.90
2013,05,04,00,58,15.80
2013,05,04,00,59,15.80
2013,05,04,01,00,15.80
2013,05,04,01,01,15.80
2013,05,04,01,02,15.80
2013,05,04,01,03,15.80
2013,05,04,01,04,15.80
2013,05,04,01,05,15.80
2013,05,04,01,06,15.70
2013,05,04,01,07,15.70
2013,05,04,01,08,15.70
2013,05,04,01,09,15.70
2013,05,04,01,10,15.70
2013,05,04,01,11,15.70
2013,05,04,01,12,15.70
2013,05,04,01,13,15.70
2013,05,04,01,14,15.70
2013,05,04,01,15,15.70
2013,05,04,01,16,15.70
2013,05,04,01,17,15.70
2013,05,04,01,18,15.70
2013,05,04,01,19,15.70
2013,05,04,01,20,15.70
2013,05,04,01,21,15.70
2013,05,04,01,22,15.70
2013,05,04,01,23,15.70
2013,05,04,01,24,15.70
2013,05,04,01,25,15.70
2013,05,04,01,26,15.60
2013,05,04,01,27,15.60
2013,05,04,01,28,15.70
2013,05,04,01,29,15.60
2013,05,04,01,30,15.60
2013,05,04,01,31,15.60
2013,05,04,01,32,15.50
2013,05,04,01,33,15.50
2013,05,04,01,34,15.40
2013,05,04,01,35,15.40
2013,05,04,01,36,15.40
2013,05,04,01,37,15.40
2013,05,04,01,38,15.30
2013,05,04,01,39,15.30
2013,05,04,01,40,15.30
2013,05,04,01,41,15.30
2013,05,04,01,42,15.30
2013,05,04,01,43,15.30
2013,05,04,01,44,15.30
2013,05,04,01,45,15.30
2013,05,04,01,46,15.30
2013,05,04,01,47,15.30
2013,05,04,01,48,15.30
2013,05,04,01,49,15.30
2013,05,04,01,50,15.30
2013,05,04,01,51,15.30
2013,05,04,01,52,15.30
2013,05,04,01,53,15.30
2013,05,04,01,54,15.30
2013,05,04,01,55,15.30
2013,05,04,01,56,15.30
2013,05,04,01,57,15.30
2013,05,04,01,58,15.40
2013,05,04,01,59,15.40
2013,05,04,02,00,15.40
2013,05,04,02,01,15.40
2013,05,04,02,02,15.40
2013,05,04,02,03,15.40
2013,05,04,02,04,15.40
2013,05,04,02,05,15.40
2013,05,04,02,06,15.40
2013,05,04,02,07,15.40
2013,05,04,02,08,15.40
2013,05,04,02,09,15.40
2013,05,04,02,10,15.40
2013,05,04,02,11,15.40
2013,05,04,02,12,15.40
2013,05,04,02,13,15.40
2013,05,04,02,14,15.40
2013,05,04,02,15,15.40
2013,05,04,02,16,15.40
2013,05,04,02,17,15.40
2013,05,04,02,18,15.40
2013,05,04,02,19,15.40
2013,05,04,02,20,15.40
2013,05,04,02,21,15.40
2013,05,04,02,22,15.40
2013,05,04,02,23,15.40
2013,05,04,02,24,15.40
2013,05,04,02,25,15.30
2013,05,04,02,26,15.30
2013,05,04,02,27,15.30
2013,05,04,02,28,15.30
2013,05,04,02,29,15.30
2013,05,04,02,30,15.20
2013,05,04,02,31,15.20
2013,05,04,02,32,15.20
2013,05,04,02,33,15.20
2013,05,04,02,34,15.10
2013,05,04,02,35,15.10
2013,05,04,02,36,15.10
2013,05,04,02,37,15.00
2013,05,04,02,38,15.00
2013,05,04,02,39,15.00
2013,05,04,02,40,15.00
2013,05,04,02,41,15.00
2013,05,04,02,42,15.00
2013,05,04,02,43,15.00
2013,05,04,02,44,15.00
2013,05,04,02,45,15.00
2013,05,04,02,46,15.00
2013,05,04,02,47,15.00
2013,05,04,02,48,15.00
2013,05,04,02,49,15.00
2013,05,04,02,50,15.00
2013,05,04,02,51,15.00
2013,05,04,02,52,15.00
2013,05,04,02,53,15.00
2013,05,04,02,54,15.00
2013,05,04,02,55,15.00
2013,05,04,02,56,15.00
2013,05,04,02,57,15.00
2013,05,04,02,58,15.00
2013,05,04,02,59,15.00
2013,05,04,03,00,15.00
2013,05,04,03,01,15.00
2013,05,04,03,02,14.90
2013,05,04,03,03,14.90
2013,05,04,03,04,14.90
2013,05,04,03,05,14.90
2013,05,04,03,06,14.90
2013,05,04,03,07,14.90
2013,05,04,03,08,14.90
2013,05,04,03,09,14.90
2013,05,04,03,10,14.90
2013,05,04,03,11,14.90
2013,05,04,03,12,14.90
2013,05,04,03,13,14.90
2013,05,04,03,14,14.90
2013,05,04,03,15,14.80
2013,05,04,03,16,14.80
2013,05,04,03,17,14.80
2013,05,04,03,18,14.80
2013,05,04,03,19,14.70
2013,05,04,03,20,14.70
2013,05,04,03,21,14.70
2013,05,04,03,22,14.70
2013,05,04,03,23,14.70
2013,05,04,03,24,14.60
2013,05,04,03,25,14.60
2013,05,04,03,26,14.60
2013,05,04,03,27,14.60
2013,05,04,03,28,14.50
2013,05,04,03,29,14.50
2013,05,04,03,30,14.50
2013,05,04,03,31,14.50
2013,05,04,03,32,14.50
2013,05,04,03,33,14.40
2013,05,04,03,34,14.40
2013,05,04,03,35,14.40
2013,05,04,03,36,14.40
2013,05,04,03,37,14.40
2013,05,04,03,38,14.40
2013,05,04,03,39,14.40
2013,05,04,03,40,14.40
2013,05,04,03,41,14.40
2013,05,04,03,42,14.40
2013,05,04,03,43,14.40
2013,05,04,03,44,14.40
2013,05,04,03,45,14.40
2013,05,04,03,46,14.40
2013,05,04,03,47,14.40
2013,05,04,03,48,14.40
2013,05,04,03,49,14.40
2013,05,04,03,50,14.40
2013,05,04,03,51,14.50
2013,05,04,03,52,14.50
2013,05,04,03,53,14.50
2013,05,04,03,54,14.50
2013,05,04,03,55,14.50
2013,05,04,03,56,14.50
2013,05,04,03,57,14.50
2013,05,04,03,58,14.50
2013,05,04,03,59,14.50
2013,05,04,04,00,14.60
2013,05,04,04,01,14.60
2013,05,04,04,02,14.60
2013,05,04,04,03,14.60
2013,05,04,04,04,14.60
2013,05,04,04,05,14.60
2013,05,04,04,06,14.60
2013,05,04,04,07,14.60
2013,05,04,04,08,14.60
2013,05,04,04,09,14.60
2013,05,04,04,10,14.50
2013,05,04,04,11,14.50
2013,05,04,04,12,14.50
2013,05,04,04,13,14.50
2013,05,04,04,14,14.50
2013,05,04,04,15,14.40
2013,05,04,04,16,14.40
2013,05,04,04,17,14.40
2013,05,04,04,18,14.40
2013,05,04,04,19,14.30
2013,05,04,04,20,14.30
2013,05,04,04,21,14.30
2013,05,04,04,22,14.30
2013,05,04,04,23,14.20
2013,05,04,04,24,14.20
2013,05,04,04,25,14.20
2013,05,04,04,26,14.20
2013,05,04,04,27,14.20
2013,05,04,04,28,14.10
2013,05,04,04,29,14.10
2013,05,04,04,30,14.10
2013,05,04,04,31,14.10
2013,05,04,04,32,14.10
2013,05,04,04,33,14.10
2013,05,04,04,34,14.00
2013,05,04,04,35,14.00
2013,05,04,04,36,14.00
2013,05,04,04,37,14.00
2013,05,04,04,38,14.00
2013,05,04,04,39,14.00
2013,05,04,04,40,14.10
2013,05,04,04,41,14.10
2013,05,04,04,42,14.10
2013,05,04,04,43,14.10
2013,05,04,04,44,14.10
2013,05,04,04,45,14.10
2013,05,04,04,46,14.20
2013,05,04,04,47,14.20
2013,05,04,04,48,14.20
2013,05,04,04,49,14.20
2013,05,04,04,50,14.20
2013,05,04,04,51,14.30
2013,05,04,04,52,14.30
2013,05,04,04,53,14.40
2013,05,04,04,54,14.40
2013,05,04,04,55,14.40
2013,05,04,04,56,14.40
2013,05,04,04,57,14.40
2013,05,04,04,58,14.40
2013,05,04,04,59,14.40
2013,05,04,05,00,14.40
2013,05,04,05,01,14.40
2013,05,04,05,02,14.40
2013,05,04,05,03,14.40
2013,05,04,05,04,14.40
2013,05,04,05,05,14.40
2013,05,04,05,06,14.40
2013,05,04,05,07,14.40
2013,05,04,05,08,14.40
2013,05,04,05,09,14.30
2013,05,04,05,10,14.30
2013,05,04,05,11,14.30
2013,05,04,05,12,14.30
2013,05,04,05,13,14.20
2013,05,04,05,14,14.20
2013,05,04,05,15,14.20
2013,05,04,05,16,14.10
2013,05,04,05,17,14.10
2013,05,04,05,18,14.10
2013,05,04,05,19,14.10
2013,05,04,05,20,14.00
2013,05,04,05,21,14.00
2013,05,04,05,22,13.90
2013,05,04,05,23,13.90
2013,05,04,05,24,13.80
2013,05,04,05,25,13.80
2013,05,04,05,26,13.80
2013,05,04,05,27,13.80
2013,05,04,05,28,13.70
2013,05,04,05,29,13.70
2013,05,04,05,30,13.70
2013,05,04,05,31,13.70
2013,05,04,05,32,13.70
2013,05,04,05,33,13.70
2013,05,04,05,34,13.70
2013,05,04,05,35,13.70
2013,05,04,05,36,13.70
2013,05,04,05,37,13.70
2013,05,04,05,38,13.70
2013,05,04,05,39,13.70
2013,05,04,05,40,13.70
2013,05,04,05,41,13.60
2013,05,04,05,42,13.40
2013,05,04,05,43,13.20
2013,05,04,05,44,13.10
2013,05,04,05,45,13.00
2013,05,04,05,46,12.80
2013,05,04,05,47,12.70
2013,05,04,05,48,12.50
2013,05,04,05,49,12.40
2013,05,04,05,50,12.20
2013,05,04,05,51,12.10
2013,05,04,05,52,12.00
2013,05,04,05,53,11.90
2013,05,04,05,54,11.80
2013,05,04,05,55,11.80
2013,05,04,05,56,11.70
2013,05,04,05,57,11.70
2013,05,04,05,58,11.70
2013,05,04,05,59,11.70
2013,05,04,06,00,11.80
2013,05,04,06,01,11.90
2013,05,04,06,02,12.00
2013,05,04,06,03,12.00
2013,05,04,06,04,12.10
2013,05,04,06,05,12.10
2013,05,04,06,06,12.10
2013,05,04,06,07,12.20
2013,05,04,06,08,12.20
2013,05,04,06,09,12.30
2013,05,04,06,10,12.40
2013,05,04,06,11,12.50
2013,05,04,06,12,12.60
2013,05,04,06,13,12.70
2013,05,04,06,14,12.80
2013,05,04,06,15,12.90
2013,05,04,06,16,12.90
2013,05,04,06,17,13.00
2013,05,04,06,18,13.00
2013,05,04,06,19,13.10
2013,05,04,06,20,13.10
2013,05,04,06,21,13.10
2013,05,04,06,22,13.00
2013,05,04,06,23,12.90
2013,05,04,06,24,12.90
2013,05,04,06,25,12.80
2013,05,04,06,26,12.70
2013,05,04,06,27,12.60
2013,05,04,06,28,12.50
2013,05,04,06,29,12.40
2013,05,04,06,30,12.40
2013,05,04,06,31,12.40
2013,05,04,06,32,12.30
2013,05,04,06,33,12.40
2013,05,04,06,34,12.40
2013,05,04,06,35,12.40
2013,05,04,06,36,12.50
2013,05,04,06,37,12.60
2013,05,04,06,38,12.60
2013,05,04,06,39,12.70
2013,05,04,06,40,12.70
2013,05,04,06,41,12.70
2013,05,04,06,42,12.80
2013,05,04,06,43,12.80
2013,05,04,06,44,12.90
2013,05,04,06,45,13.00
2013,05,04,06,46,13.00
2013,05,04,06,47,12.90
2013,05,04,06,48,12.90
2013,05,04,06,49,12.80
2013,05,04,06,50,12.70
2013,05,04,06,51,12.70
2013,05,04,06,52,12.70
2013,05,04,06,53,12.70
2013,05,04,06,54,12.80
2013,05,04,06,55,12.80
2013,05,04,06,56,12.80
2013,05,04,06,57,12.80
2013,05,04,06,58,12.70
2013,05,04,06,59,12.70
2013,05,04,07,00,12.70
2013,05,04,07,01,12.70
2013,05,04,07,02,12.60
2013,05,04,07,03,12.60
2013,05,04,07,04,12.60
2013,05,04,07,05,12.60
2013,05,04,07,06,12.60
2013,05,04,07,07,12.60
2013,05,04,07,08,12.60
2013,05,04,07,09,12.60
2013,05,04,07,10,12.60
2013,05,04,07,11,12.60
2013,05,04,07,12,12.60
2013,05,04,07,13,12.60
2013,05,04,07,14,12.60
2013,05,04,07,15,12.60
2013,05,04,07,16,12.60
2013,05,04,07,17,12.70
2013,05,04,07,18,12.70
2013,05,04,07,19,12.70
2013,05,04,07,20,12.70
2013,05,04,07,21,12.80
2013,05,04,07,22,12.80
2013,05,04,07,23,12.80
2013,05,04,07,24,12.90
2013,05,04,07,25,12.90
2013,05,04,07,26,12.90
2013,05,04,07,27,13.00
2013,05,04,07,28,13.00
2013,05,04,07,29,13.00
2013,05,04,07,30,13.00
2013,05,04,07,31,13.10
2013,05,04,07,32,13.10
2013,05,04,07,33,13.10
2013,05,04,07,34,13.20
2013,05,04,07,35,13.20
2013,05,04,07,36,13.20
2013,05,04,07,37,13.30
2013,05,04,07,38,13.40
2013,05,04,07,39,13.50
2013,05,04,07,40,13.60
2013,05,04,07,41,13.70
2013,05,04,07,42,13.80
2013,05,04,07,43,13.90
2013,05,04,07,44,14.00
2013,05,04,07,45,14.10
2013,05,04,07,46,14.20
2013,05,04,07,47,14.20
2013,05,04,07,48,14.30
2013,05,04,07,49,14.40
2013,05,04,07,50,14.60
2013,05,04,07,51,14.70
2013,05,04,07,52,15.00
2013,05,04,07,53,15.00
2013,05,04,07,54,15.20
2013,05,04,07,55,15.40
2013,05,04,07,56,15.50
2013,05,04,07,57,15.60
2013,05,04,07,58,15.70
2013,05,04,07,59,15.70
2013,05,04,08,00,15.70
2013,05,04,08,01,15.80
2013,05,04,08,02,15.80
2013,05,04,08,03,15.90
2013,05,04,08,04,16.00
2013,05,04,08,05,16.10
2013,05,04,08,06,16.10
2013,05,04,08,07,16.20
2013,05,04,08,08,16.30
2013,05,04,08,09,16.40
2013,05,04,08,10,16.40
2013,05,04,08,11,16.50
2013,05,04,08,12,16.60
2013,05,04,08,13,16.70
2013,05,04,08,14,16.70
2013,05,04,08,15,16.80
2013,05,04,08,16,16.80
2013,05,04,08,17,16.90
2013,05,04,08,18,16.90
2013,05,04,08,19,17.00
2013,05,04,08,20,17.00
2013,05,04,08,21,17.00
2013,05,04,08,22,17.10
2013,05,04,08,23,17.10
2013,05,04,08,24,17.10
2013,05,04,08,25,17.00
2013,05,04,08,26,17.00
2013,05,04,08,27,17.00
2013,05,04,08,28,17.00
2013,05,04,08,29,17.00
2013,05,04,08,30,17.00
2013,05,04,08,31,16.90
2013,05,04,08,32,16.90
2013,05,04,08,33,16.80
2013,05,04,08,34,16.80
2013,05,04,08,35,16.80
2013,05,04,08,36,16.80
2013,05,04,08,37,16.80
2013,05,04,08,38,16.80
2013,05,04,08,39,16.80
2013,05,04,08,40,16.80
2013,05,04,08,41,16.80
2013,05,04,08,42,16.90
2013,05,04,08,43,16.90
2013,05,04,08,44,16.90
2013,05,04,08,45,16.90
2013,05,04,08,46,17.00
2013,05,04,08,47,17.00
2013,05,04,08,48,17.00
2013,05,04,08,49,17.10
2013,05,04,08,50,17.10
2013,05,04,08,51,17.20
2013,05,04,08,52,17.30
2013,05,04,08,53,17.30
2013,05,04,08,54,17.30
2013,05,04,08,55,17.30
2013,05,04,08,56,17.40
2013,05,04,08,57,17.40
2013,05,04,08,58,17.40
2013,05,04,08,59,17.40
2013,05,04,09,00,17.40
2013,05,04,09,01,17.40
2013,05,04,09,02,17.50
2013,05,04,09,03,17.50
2013,05,04,09,04,17.60
2013,05,04,09,05,17.70
2013,05,04,09,06,17.70
2013,05,04,09,07,17.70
2013,05,04,09,08,17.80
2013,05,04,09,09,17.80
2013,05,04,09,10,17.90
2013,05,04,09,11,17.90
2013,05,04,09,12,17.90
2013,05,04,09,13,17.90
2013,05,04,09,14,18.00
2013,05,04,09,15,18.00
2013,05,04,09,16,17.90
2013,05,04,09,17,17.90
2013,05,04,09,18,17.90
2013,05,04,09,19,17.90
2013,05,04,09,20,18.00
2013,05,04,09,21,18.00
2013,05,04,09,22,18.00
2013,05,04,09,23,18.00
2013,05,04,09,24,18.10
2013,05,04,09,25,18.20
2013,05,04,09,26,18.20
2013,05,04,09,27,18.30
2013,05,04,09,28,18.30
2013,05,04,09,29,18.40
2013,05,04,09,30,18.40
2013,05,04,09,31,18.40
2013,05,04,09,32,18.30
2013,05,04,09,33,18.40
2013,05,04,09,34,18.30
2013,05,04,09,35,18.40
2013,05,04,09,36,18.30
2013,05,04,09,37,18.40
2013,05,04,09,38,18.30
2013,05,04,09,39,18.30
2013,05,04,09,40,18.30
2013,05,04,09,41,18.30
2013,05,04,09,42,18.30
2013,05,04,09,43,18.30
2013,05,04,09,44,18.40
2013,05,04,09,45,18.30
2013,05,04,09,46,18.20
2013,05,04,09,47,18.20
2013,05,04,09,48,18.20
2013,05,04,09,49,18.20
2013,05,04,09,50,18.20
2013,05,04,09,51,18.20
2013,05,04,09,52,18.20
2013,05,04,09,53,18.10
2013,05,04,09,54,18.10
2013,05,04,09,55,18.20
2013,05,04,09,56,18.20
2013,05,04,09,57,18.20
2013,05,04,09,58,18.20
2013,05,04,09,59,18.30
2013,05,04,10,00,18.30
2013,05,04,10,01,18.30
2013,05,04,10,02,18.30
2013,05,04,10,03,18.20
2013,05,04,10,04,18.30
2013,05,04,10,05,18.30
2013,05,04,10,06,18.40
2013,05,04,10,07,18.40
2013,05,04,10,08,18.40
2013,05,04,10,09,18.50
2013,05,04,10,10,18.50
2013,05,04,10,11,18.60
2013,05,04,10,12,18.60
2013,05,04,10,13,18.70
2013,05,04,10,14,18.70
2013,05,04,10,15,18.80
2013,05,04,10,16,18.80
2013,05,04,10,17,18.80
2013,05,04,10,18,18.80
2013,05,04,10,19,18.70
2013,05,04,10,20,18.60
2013,05,04,10,21,18.50
2013,05,04,10,22,18.50
2013,05,04,10,23,18.60
2013,05,04,10,24,18.70
2013,05,04,10,25,18.70
2013,05,04,10,26,18.60
2013,05,04,10,27,18.70
2013,05,04,10,28,18.70
2013,05,04,10,29,18.80
2013,05,04,10,30,18.80
2013,05,04,10,31,18.80
2013,05,04,10,32,18.80
2013,05,04,10,33,18.90
2013,05,04,10,34,18.90
2013,05,04,10,35,19.00
2013,05,04,10,36,19.10
2013,05,04,10,37,19.20
2013,05,04,10,38,19.30
2013,05,04,10,39,19.30
2013,05,04,10,40,19.30
2013,05,04,10,41,19.20
2013,05,04,10,42,19.20
2013,05,04,10,43,19.20
2013,05,04,10,44,19.20
2013,05,04,10,45,19.20
2013,05,04,10,46,19.30
2013,05,04,10,47,19.40
2013,05,04,10,48,19.50
2013,05,04,10,49,19.60
2013,05,04,10,50,19.70
2013,05,04,10,51,19.80
2013,05,04,10,52,19.80
2013,05,04,10,53,19.90
2013,05,04,10,54,20.00
2013,05,04,10,55,20.10
2013,05,04,10,56,20.20
2013,05,04,10,57,20.10
2013,05,04,10,58,20.10
2013,05,04,10,59,20.10
2013,05,04,11,00,20.20
2013,05,04,11,01,20.20
2013,05,04,11,02,20.30
2013,05,04,11,03,20.40
2013,05,04,11,04,20.40
2013,05,04,11,05,20.40
2013,05,04,11,06,20.40
2013,05,04,11,07,20.40
2013,05,04,11,08,20.40
2013,05,04,11,09,20.40
2013,05,04,11,10,20.30
2013,05,04,11,11,20.30
2013,05,04,11,12,20.20
2013,05,04,11,13,20.20
2013,05,04,11,14,20.20
2013,05,04,11,15,20.10
2013,05,04,11,16,20.10
2013,05,04,11,17,20.20
2013,05,04,11,18,20.20
2013,05,04,11,19,20.20
2013,05,04,11,20,20.20
2013,05,04,11,21,20.20
2013,05,04,11,22,20.20
2013,05,04,11,23,20.20
2013,05,04,11,24,20.30
2013,05,04,11,25,20.30
2013,05,04,11,26,20.30
2013,05,04,11,27,20.30
2013,05,04,11,28,20.30
2013,05,04,11,29,20.30
2013,05,04,11,30,20.20
2013,05,04,11,31,20.30
2013,05,04,11,32,20.20
2013,05,04,11,33,20.00
2013,05,04,11,34,19.90
2013,05,04,11,35,19.70
2013,05,04,11,36,19.70
2013,05,04,11,37,19.70
2013,05,04,11,38,19.70
2013,05,04,11,39,19.70
2013,05,04,11,40,19.80
2013,05,04,11,41,19.80
2013,05,04,11,42,19.90
2013,05,04,11,43,19.90
2013,05,04,11,44,19.90
2013,05,04,11,45,19.90
2013,05,04,11,46,19.90
2013,05,04,11,47,19.80
2013,05,04,11,48,19.90
2013,05,04,11,49,19.90
2013,05,04,11,50,19.90
2013,05,04,11,51,19.90
2013,05,04,11,52,19.90
2013,05,04,11,53,19.90
2013,05,04,11,54,19.90
2013,05,04,11,55,19.80
2013,05,04,11,56,19.80
2013,05,04,11,57,19.80
2013,05,04,11,58,19.80
2013,05,04,11,59,19.90
2013,05,04,12,00,19.90
2013,05,04,12,01,20.00
2013,05,04,12,02,20.00
2013,05,04,12,03,20.00
2013,05,04,12,04,20.00
2013,05,04,12,05,20.00
2013,05,04,12,06,19.90
2013,05,04,12,07,19.90
2013,05,04,12,08,19.90
2013,05,04,12,09,20.00
2013,05,04,12,10,20.10
2013,05,04,12,11,20.10
2013,05,04,12,12,20.10
2013,05,04,12,13,20.10
2013,05,04,12,14,20.20
2013,05,04,12,15,20.20
2013,05,04,12,16,20.20
2013,05,04,12,17,20.30
2013,05,04,12,18,20.40
2013,05,04,12,19,20.40
2013,05,04,12,20,20.50
2013,05,04,12,21,20.60
2013,05,04,12,22,20.60
2013,05,04,12,23,20.70
2013,05,04,12,24,20.70
2013,05,04,12,25,20.70
2013,05,04,12,26,20.70
2013,05,04,12,27,20.80
2013,05,04,12,28,20.80
2013,05,04,12,29,20.80
2013,05,04,12,30,20.80
2013,05,04,12,31,20.70
2013,05,04,12,32,20.70
2013,05,04,12,33,20.60
2013,05,04,12,34,20.60
2013,05,04,12,35,20.60
2013,05,04,12,36,20.60
2013,05,04,12,37,20.70
2013,05,04,12,38,20.80
2013,05,04,12,39,20.90
2013,05,04,12,40,21.00
2013,05,04,12,41,21.10
2013,05,04,12,42,21.10
2013,05,04,12,43,21.10
2013,05,04,12,44,21.10
2013,05,04,12,45,21.10
2013,05,04,12,46,21.10
2013,05,04,12,47,21.20
2013,05,04,12,48,21.20
2013,05,04,12,49,21.20
2013,05,04,12,50,21.20
2013,05,04,12,51,21.20
2013,05,04,12,52,21.20
2013,05,04,12,53,21.20
2013,05,04,12,54,21.30
2013,05,04,12,55,21.40
2013,05,04,12,56,21.50
2013,05,04,12,57,21.50
2013,05,04,12,58,21.50
2013,05,04,12,59,21.40
2013,05,04,13,00,21.40
2013,05,04,13,01,21.40
2013,05,04,13,02,21.40
2013,05,04,13,03,21.40
2013,05,04,13,04,21.50
2013,05,04,13,05,21.60
2013,05,04,13,06,21.60
2013,05,04,13,07,21.60
2013,05,04,13,08,21.60
2013,05,04,13,09,21.50
2013,05,04,13,10,21.50
2013,05,04,13,11,21.40
2013,05,04,13,12,21.40
2013,05,04,13,13,21.50
2013,05,04,13,14,21.60
2013,05,04,13,15,21.60
2013,05,04,13,16,21.70
2013,05,04,13,17,21.70
2013,05,04,13,18,21.80
2013,05,04,13,19,21.80
2013,05,04,13,20,21.90
2013,05,04,13,21,21.90
2013,05,04,13,22,21.90
2013,05,04,13,23,21.90
2013,05,04,13,24,21.90
2013,05,04,13,25,21.90
2013,05,04,13,26,21.90
2013,05,04,13,27,22.00
2013,05,04,13,28,22.00
2013,05,04,13,29,22.10
2013,05,04,13,30,22.20
2013,05,04,13,31,22.20
2013,05,04,13,32,22.20
2013,05,04,13,33,22.10
2013,05,04,13,34,22.20
2013,05,04,13,35,22.10
2013,05,04,13,36,22.10
2013,05,04,13,37,22.10
2013,05,04,13,38,22.10
2013,05,04,13,39,22.10
2013,05,04,13,40,22.10
2013,05,04,13,41,22.10
2013,05,04,13,42,22.20
2013,05,04,13,43,22.20
2013,05,04,13,44,22.20
2013,05,04,13,45,22.20
2013,05,04,13,46,22.20
2013,05,04,13,47,22.20
2013,05,04,13,48,22.30
2013,05,04,13,49,22.20
2013,05,04,13,50,22.20
2013,05,04,13,51,22.10
2013,05,04,13,52,22.10
2013,05,04,13,53,22.10
2013,05,04,13,54,22.10
2013,05,04,13,55,22.00
2013,05,04,13,56,21.90
2013,05,04,13,57,21.90
2013,05,04,13,58,22.00
2013,05,04,13,59,22.10
2013,05,04,14,00,22.20
2013,05,04,14,01,22.20
2013,05,04,14,02,22.20
2013,05,04,14,03,22.20
2013,05,04,14,04,22.20
2013,05,04,14,05,22.30
2013,05,04,14,06,22.30
2013,05,04,14,07,22.30
2013,05,04,14,08,22.30
2013,05,04,14,09,22.30
2013,05,04,14,10,22.30
2013,05,04,14,11,22.30
2013,05,04,14,12,22.30
2013,05,04,14,13,22.30
2013,05,04,14,14,22.50
2013,05,04,14,15,22.60
2013,05,04,14,16,22.70
2013,05,04,14,17,22.90
2013,05,04,14,18,22.90
2013,05,04,14,19,22.90
2013,05,04,14,20,22.90
2013,05,04,14,21,22.80
2013,05,04,14,22,22.80
2013,05,04,14,23,22.80
2013,05,04,14,24,22.90
2013,05,04,14,25,23.00
2013,05,04,14,26,23.10
2013,05,04,14,27,23.20
2013,05,04,14,28,23.20
2013,05,04,14,29,23.20
2013,05,04,14,30,23.30
2013,05,04,14,31,23.30
2013,05,04,14,32,23.30
2013,05,04,14,33,23.20
2013,05,04,14,34,23.10
2013,05,04,14,35,23.10
2013,05,04,14,36,23.00
2013,05,04,14,37,23.00
2013,05,04,14,38,22.90
2013,05,04,14,39,23.00
2013,05,04,14,40,23.00
2013,05,04,14,41,23.00
2013,05,04,14,42,22.90
2013,05,04,14,43,22.90
2013,05,04,14,44,22.90
2013,05,04,14,45,22.90
2013,05,04,14,46,22.80
2013,05,04,14,47,22.80
2013,05,04,14,48,22.80
2013,05,04,14,49,22.80
2013,05,04,14,50,22.80
2013,05,04,14,51,22.80
2013,05,04,14,52,22.70
2013,05,04,14,53,22.80
2013,05,04,14,54,22.80
2013,05,04,14,55,22.90
2013,05,04,14,56,23.00
2013,05,04,14,57,23.10
2013,05,04,14,58,23.20
2013,05,04,14,59,23.10
2013,05,04,15,00,23.10
2013,05,04,15,01,23.00
2013,05,04,15,02,23.00
2013,05,04,15,03,23.00
2013,05,04,15,04,22.90
2013,05,04,15,05,22.90
2013,05,04,15,06,22.90
2013,05,04,15,07,23.00
2013,05,04,15,08,23.00
2013,05,04,15,09,23.10
2013,05,04,15,10,23.20
2013,05,04,15,11,23.20
2013,05,04,15,12,23.30
2013,05,04,15,13,23.30
2013,05,04,15,14,23.30
2013,05,04,15,15,23.30
2013,05,04,15,16,23.30
2013,05,04,15,17,23.30
2013,05,04,15,18,23.40
2013,05,04,15,19,23.50
2013,05,04,15,20,23.60
2013,05,04,15,21,23.60
2013,05,04,15,22,23.60
2013,05,04,15,23,23.60
2013,05,04,15,24,23.50
2013,05,04,15,25,23.50
2013,05,04,15,26,23.50
2013,05,04,15,27,23.50
2013,05,04,15,28,23.50
2013,05,04,15,29,23.50
2013,05,04,15,30,23.50
2013,05,04,15,31,23.50
2013,05,04,15,32,23.60
2013,05,04,15,33,23.60
2013,05,04,15,34,23.70
2013,05,04,15,35,23.70
2013,05,04,15,36,23.70
2013,05,04,15,37,23.60
2013,05,04,15,38,23.50
2013,05,04,15,39,23.50
2013,05,04,15,40,23.40
2013,05,04,15,41,23.30
2013,05,04,15,42,23.20
2013,05,04,15,43,23.20
2013,05,04,15,44,23.20
2013,05,04,15,45,23.20
2013,05,04,15,46,23.30
2013,05,04,15,47,23.30
2013,05,04,15,48,23.40
2013,05,04,15,49,23.40
2013,05,04,15,50,23.40
2013,05,04,15,51,23.40
2013,05,04,15,52,23.40
2013,05,04,15,53,23.40
2013,05,04,15,54,23.50
2013,05,04,15,55,23.50
2013,05,04,15,56,23.50
2013,05,04,15,57,23.50
2013,05,04,15,58,23.40
2013,05,04,15,59,23.40
2013,05,04,16,00,23.40
2013,05,04,16,01,23.40
2013,05,04,16,02,23.40
2013,05,04,16,03,23.40
2013,05,04,16,04,23.30
2013,05,04,16,05,23.30
2013,05,04,16,06,23.20
2013,05,04,16,07,23.10
2013,05,04,16,08,23.10
2013,05,04,16,09,23.10
2013,05,04,16,10,23.10
2013,05,04,16,11,23.10
2013,05,04,16,12,23.00
2013,05,04,16,13,23.00
2013,05,04,16,14,23.00
2013,05,04,16,15,22.90
2013,05,04,16,16,22.90
2013,05,04,16,17,23.00
2013,05,04,16,18,23.10
2013,05,04,16,19,23.00
2013,05,04,16,20,23.00
2013,05,04,16,21,23.00
2013,05,04,16,22,23.00
2013,05,04,16,23,23.00
2013,05,04,16,24,23.00
2013,05,04,16,25,23.00
2013,05,04,16,26,23.10
2013,05,04,16,27,23.20
2013,05,04,16,28,23.20
2013,05,04,16,29,23.20
2013,05,04,16,30,23.10
2013,05,04,16,31,23.10
2013,05,04,16,32,23.10
2013,05,04,16,33,23.10
2013,05,04,16,34,23.10
2013,05,04,16,35,23.10
2013,05,04,16,36,23.10
2013,05,04,16,37,23.10
2013,05,04,16,38,23.10
2013,05,04,16,39,23.20
2013,05,04,16,40,23.20
2013,05,04,16,41,23.30
2013,05,04,16,42,23.40
2013,05,04,16,43,23.40
2013,05,04,16,44,23.40
2013,05,04,16,45,23.30
2013,05,04,16,46,23.30
2013,05,04,16,47,23.30
2013,05,04,16,48,23.30
2013,05,04,16,49,23.40
2013,05,04,16,50,23.40
2013,05,04,16,51,23.40
2013,05,04,16,52,23.40
2013,05,04,16,53,23.50
2013,05,04,16,54,23.60
2013,05,04,16,55,23.60
2013,05,04,16,56,23.60
2013,05,04,16,57,23.60
2013,05,04,16,58,23.60
2013,05,04,16,59,23.60
2013,05,04,17,00,23.70
2013,05,04,17,01,23.70
2013,05,04,17,02,23.80
2013,05,04,17,03,23.80
2013,05,04,17,04,23.90
2013,05,04,17,05,24.00
2013,05,04,17,06,24.10
2013,05,04,17,07,24.20
2013,05,04,17,08,24.30
2013,05,04,17,09,24.40
2013,05,04,17,10,24.40
2013,05,04,17,11,24.50
2013,05,04,17,12,24.50
2013,05,04,17,13,24.50
2013,05,04,17,14,24.60
2013,05,04,17,15,24.60
2013,05,04,17,16,24.60
2013,05,04,17,17,24.60
2013,05,04,17,18,24.60
2013,05,04,17,19,24.60